Clinton, British Columbia

10:46 PM PDT on May 27, 2017 (GMT -0700)
Clinton

Weather History for CWCL - September, 2013

Change the Weather History Date:

Saturday, September 28, 2013

  Actual Average Record
Temperature  
Mean Temperature 46 °F -  
Max Temperature 52 °F 47 °F 71 °F (2006)
Min Temperature 40 °F 29 °F 26 °F (1999)
Degree Days  
Heating Degree Days 19    
Moisture  
Dew Point 37 °F    
Average Humidity 72    
Maximum Humidity 87    
Minimum Humidity 54    
Precipitation  
Precipitation 0.00 in - - ()
Sea Level Pressure  
Sea Level Pressure 29.41 in    
Wind  
Wind Speed 8 mph ()    
Max Wind Speed 20 mph    
Max Gust Speed 33 mph    
Visibility 9.0 miles    
Events      
Averages and records for this station are not official NWS values.
T = Trace of Precipitation, MM = Missing Value Source: Averaged Metar Reports

Daily Weather History Graph

Daily Weather History Graph

Search for Another Location

Airport or City:

Trip Planner

Search our weather history database for the weather conditions in past years. The results will help you decide how hot, cold, wet, or windy it might be!

Date:

Astronomy

Sep. 28, 2013 Rise Set
Actual Time 7:02 AM PDT 6:49 PM PDT
Civil Twilight 6:29 AM PDT 7:22 PM PDT
Nautical Twilight 5:50 AM PDT 8:01 PM PDT
Astronomical Twilight 5:10 AM PDT 8:40 PM PDT
Moon 12:20 AM PDT 3:43 PM PDT
Length of Visible Light 12h 53m
Length of Day
11h 47m
Waning Crescent, 35% of the Moon is Illuminated
Sep 28
Waning Crescent
Oct 4
New
Oct 11
First Quarter
Oct 18
Full
Oct 26
Last Quarter

Hourly Weather History & Observations

Time (PDT) Temp. Windchill Dew Point Humidity Pressure Visibility Wind Dir Wind Speed Gust Speed Precip Events Conditions
12:00 AM 41.0 °F 36.4 °F 37.4 °F 87% 29.72 in 9.0 mi South 6.9 mph - N/A   Scattered Clouds
1:00 AM 42.8 °F 39.3 °F 37.4 °F 81% 29.70 in 9.0 mi South 5.8 mph - N/A   Overcast
2:00 AM 42 °F - 37 °F 75% 29.67 in 9 mi South 5.8 mph - -  
2:00 AM 42.8 °F 41.1 °F 37.4 °F 81% 29.67 in 9.0 mi South 3.5 mph - N/A   Partly Cloudy
3:00 AM 42.8 °F 40.1 °F 35.6 °F 76% 29.65 in 9.0 mi South 4.6 mph - N/A   Mostly Cloudy
4:00 AM 42.8 °F 40.1 °F 35.6 °F 76% 29.62 in 9.0 mi South 4.6 mph - N/A   Scattered Clouds
5:00 AM 42 °F - 34 °F 64% 29.61 in 9 mi SSE 4.6 mph - -  
5:00 AM 42.8 °F 40.1 °F 33.8 °F 70% 29.61 in 9.0 mi SSE 4.6 mph - N/A   Mostly Cloudy
6:00 AM 42.8 °F 36.2 °F 32.0 °F 66% 29.59 in 9.0 mi South 12.7 mph 18.4 mph N/A   Partly Cloudy
7:00 AM 42.8 °F 36.6 °F 33.8 °F 70% 29.57 in 9.0 mi South 11.5 mph - N/A   Clear
8:00 AM 42 °F - 34 °F 64% 29.56 in 9 mi SSE 5.8 mph - -   Overcast
8:00 AM 42.8 °F 39.3 °F 33.8 °F 70% 29.56 in 9.0 mi SSE 5.8 mph - N/A   Overcast
9:00 AM 42.8 °F 36.2 °F 33.8 °F 70% 29.54 in 9.0 mi South 12.7 mph 18.4 mph N/A   Overcast
10:00 AM 44.6 °F 39.7 °F 33.8 °F 66% 29.48 in 9.0 mi South 9.2 mph 17.3 mph N/A   Partly Cloudy
11:00 AM 47 °F - 36 °F 54% 29.45 in 9 mi South 11.5 mph - -  
11:00 AM 48.2 °F - 35.6 °F 62% 29.45 in 9.0 mi South 10.4 mph 17.3 mph N/A   Scattered Clouds
12:00 PM 48.2 °F - 35.6 °F 62% 29.41 in 9.0 mi South 11.5 mph 17.3 mph N/A   Overcast
12:15 PM 48.2 °F - 37.4 °F 66% 29.37 in 9.0 mi South 11.5 mph 19.6 mph N/A   Overcast
1:00 PM 46.4 °F 41.5 °F 37.4 °F 71% 29.38 in 9.0 mi South 10.4 mph 20.7 mph N/A   Overcast
2:00 PM 47 °F - 39 °F 64% 29.33 in 9 mi South 12.7 mph - -   Overcast
2:00 PM 46.4 °F 40.4 °F 39.2 °F 76% 29.33 in 9.0 mi South 13.8 mph 21.9 mph N/A   Overcast
3:00 PM 48.2 °F - 39.2 °F 71% 29.28 in 9.0 mi South 15.0 mph 24.2 mph N/A   Overcast
3:36 PM 50.0 °F - 39.2 °F 66% 29.22 in 9.0 mi South 15.0 mph 33.4 mph N/A   Scattered Clouds
4:00 PM 50.0 °F - 39.2 °F 66% 29.24 in 9.0 mi South 15.0 mph 33.4 mph N/A   Partly Cloudy
5:00 PM 49 °F - 40 °F 62% 29.19 in 9 mi South 15.0 mph - -  
5:00 PM 50.0 °F - 41.0 °F 71% 29.19 in 9.0 mi South 17.3 mph 29.9 mph N/A   Partly Cloudy
6:00 PM 46.4 °F 39.0 °F 37.4 °F 71% 29.16 in 9.0 mi South 19.6 mph 29.9 mph N/A   Partly Cloudy
7:00 PM 46.4 °F 39.5 °F 39.2 °F 76% 29.17 in 9.0 mi South 17.3 mph 25.3 mph N/A   Clear
8:00 PM 45 °F - 37 °F 66% 29.22 in 9 mi South 16.1 mph - -  
8:00 PM 44.6 °F 38.1 °F 37.4 °F 76% 29.22 in 9.0 mi South 13.8 mph 29.9 mph N/A   Scattered Clouds
9:00 PM 44.6 °F 41.4 °F 37.4 °F 76% 29.23 in 9.0 mi South 5.8 mph 17.3 mph N/A   Partly Cloudy
10:00 PM 42.8 °F - 37.4 °F 81% 29.23 in 9.0 mi SSE 2.3 mph - N/A   Mostly Cloudy
11:00 PM 40 °F - 36 °F 79% 29.26 in 9 mi NE 2.3 mph - -  
11:00 PM 41.0 °F 36.4 °F 35.6 °F 81% 29.26 in 9.0 mi NNE 6.9 mph - N/A   Clear
11:23 PM 41.0 °F 38.0 °F 35.6 °F 81% 29.24 in 9.0 mi SSE 4.6 mph - N/A   Mostly Cloudy
11:40 PM 41.0 °F 36.4 °F 37.4 °F 87% 29.22 in 9.0 mi SSW 6.9 mph - N/A   Mostly Cloudy